Regional Weather Roundup
Issued by NWS

Home | Current Version | Previous Version | Graphics & Text | Print | Product List | Glossary On
Versions: 1 2 3 4 5 6 7 8 9 10 11 12 13 14 15 16 17 18 19 20 21 22 23 24 25 26 27 28 29 30 31 32 33 34 35 36 37 38 39 40 41 42 43 44 45 46 47 48 49 50
000
ASUS45 KBOU 192107
RWRCO

WEATHER ROUNDUP FOR COLORADO
NATIONAL WEATHER SERVICE DENVER/BOULDER CO
300 PM MDT TUE AUG 19 2014

NOTE: "FAIR" INDICATES FEW OR NO CLOUDS BELOW 12000 FEET WITH NO
SIGNIFICANT WEATHER AND/OR OBSTRUCTIONS TO VISIBILITY.

COZ001>005-013-030-031-192200-
...NORTHWEST COLORADO...

CITY           SKY/WX    TMP DP  RH WIND       PRES   REMARKS
CRAIG          LGT RAIN  64  55  72 N3        30.11F
HAYDEN         CLOUDY    63  50  63 CALM      30.12F
MEEKER         LGT RAIN  65  50  58 CALM      30.10F
MOUNT WERNER   NOT AVBL
STEAMBOAT SPGS CLOUDY    63  50  63 W9        30.13R
WALDEN         PTSUNNY   63  41  45 W15       30.18F
$$

COZ006>008-011-192200-
...WEST CENTRAL VALLEYS...

CITY           SKY/WX    TMP DP  RH WIND       PRES   REMARKS
GRAND JUNCTION PTSUNNY   75  51  43 NW20      29.94F
MONTROSE       LGT RAIN  79  48  33 SE8       29.99F
EAGLE          MOSUNNY   81  43  26 W6        30.03F
RIFLE          MOSUNNY   81  43  26 NW8       29.97F
DELTA          PTSUNNY   87  43  21 S9        29.94F
NUCLA          PTSUNNY   81  45  28 S7        30.02F
$$

COZ017>023-064>068-192200-
...SOUTHWEST COLORADO...

CITY           SKY/WX    TMP DP  RH WIND       PRES   REMARKS
DURANGO        PTSUNNY   79  41  25 SW7G18    30.05F
CORTEZ         PTSUNNY   79  46  31 SW17      30.02F
PAGOSA SPRINGS MOSUNNY   78  34  20 SW10G18   30.13F
TELLURIDE      PTSUNNY   70  41  35 SW3       30.21F
WOLF CREEK PAS NOT AVBL
$$

COZ009-010-012-014-032>034-037-058>063-192200-
...CENTRAL COLORADO...

CITY           SKY/WX    TMP DP  RH WIND       PRES   REMARKS
ASPEN          MOSUNNY   75  38  26 CALM      30.10F
BUENA VISTA    CLOUDY    69  43  38 SE10      30.17S
COPPER MTN     PTSUNNY   61  30  31 S15       30.45F
BERTHOUD PASS  FAIR      46  45  93 E24       30.50F THUNDER
COTTONWOOD PAS PTSUNNY   68  32  26 CALM      30.31R THUNDER
GUNNISON       PTSUNNY   66  43  42 NE9       30.15F
KREMMLING      PTSUNNY   79  32  18 W12G18    30.09F
LEADVILLE      LGT RAIN  62  39  42 S15G30    30.27F
MONARCH PASS   CLOUDY    45  39  81 W17       30.58S THUNDER
SALIDA         PTSUNNY   67  53  60 NW3       30.21R
SUNLIGHT       MOSUNNY   63  48  59 W5        30.36F
WILKERSON PASS NOT AVBL
$$

COZ069>075-192200-
...SAN LUIS VALLEY/SANGRE DE CRISTO MOUNTAINS...

CITY           SKY/WX    TMP DP  RH WIND       PRES   REMARKS
ALAMOSA        PTSUNNY   74  38  27 SE21G29   30.12F
LA VETA PASS   PTSUNNY   70  37  30 CALM      30.33F
SAGUACHE       PTSUNNY   77  41  27 S6        30.13F
$$

COZ035-036-038>040-192200-
...NORTHERN COLORADO FRONT RANGE...

CITY           SKY/WX    TMP DP  RH WIND       PRES   REMARKS
DENVER INTL AP PTSUNNY   90  40  17 N8G17     29.90F
DMNS CITY PARK   N/A     86  41  20 N7G20     29.90F
AURORA         PTSUNNY   90  42  19 N9        29.92F
FRONT RANGE AP NOT AVBL
ERIE MUNI ARPT PTSUNNY   86  46  25 N13       29.91F
BOULDER MUN AP PTSUNNY   84  39  20 W7G16     29.92F
CENTENNIAL     PTSUNNY   86  37  17 E8        29.93F
BROOMFIELD     PTSUNNY   88  43  20 W14G20    29.95F
FORT COLLINS   PTSUNNY   84  52  32 S7        29.90S
LONGMONT       PTSUNNY   85  52  31 CALM      29.92F
$$

COZ041-046-047-076>085-087-088-192200-
...PIKES PEAK/PALMER DIVIDE AND SOUTHERN FOOTHILLS...

CITY           SKY/WX    TMP DP  RH WIND       PRES   REMARKS
COLO. SPRINGS  TSTM      78  42  27 NW13G20   30.01R
A. F. ACADEMY  PTSUNNY   76  40  27 SE2       30.03S
ELLICOTT       PTSUNNY   85  41  21 SW10      29.97F
FALCON         PTSUNNY   76  33  21 W24G33    30.06S
FORT CARSON    TSTM      77  48  36 N16       29.97S
LIMON          MOSUNNY   91  39  16 S13G23    29.91F
MONUMENT HILL  LGT RAIN  72  37  28 S25G38    30.05S
TRINIDAD       CLOUDY    79  46  31 W12       29.99S
$$

COZ042>045-048>051-090-091-192200-
...NORTHEAST COLORADO...

CITY           SKY/WX    TMP DP  RH WIND       PRES   REMARKS
GREELEY ARPT   MOSUNNY   90  48  24 SE5       29.88F
AKRON          MOSUNNY   90  46  21 SE14G23   29.87F
BURLINGTON     SUNNY     95  48  20 S13       29.85F
WRAY             N/A     95  49  21 E8        29.82F
STERLING       MOSUNNY   95  55  26 SE8       29.81F
HOLYOKE        NOT AVBL
FORT MORGAN    MOSUNNY   91  45  20 CALM      29.86F
$$

COZ086-089-092>099-192200-
...SOUTHEAST COLORADO...

CITY           SKY/WX    TMP DP  RH WIND       PRES   REMARKS
PUEBLO         MOSUNNY   92  42  17 VRB6      29.85F
LA JUNTA       SUNNY     96  43  16 S8G16     29.83F
LAMAR          SUNNY     98  44  15 E6        29.79F
SPRINGFIELD      N/A     95  44  17 S13G25    29.88F
$$



USA.gov is the U.S. government's official web portal to all federal, state and local government web resources and services.